EW3861 Weather Reports


time (UTC)temp
C
wind
direction
speed
KPH
gust
KPH
rain 1hr
cm
rain 24hr
cm
rain mn
cm
humidity
%
barometer
mb
20260906131510 15 81 0.0 0.0 0.00 0.00 0.00 96 1014.3
20260906130004 15 79 0.0 0.0 0.00 0.00 0.00 96 1014.1
20260906124504 15 79 0.0 0.0 0.00 0.00 0.00 96 1014.1
20260906123002 15 79 0.0 0.0 0.00 0.00 0.00 96 1014.1
20260906121500 15 79 0.0 0.0 0.00 0.00 0.00 96 1013.9
20260906120059 15 79 0.0 0.0 0.00 0.00 0.00 96 1013.8
20260906114601 15 79 0.0 0.0 0.00 0.00 0.00 96 1013.7
20260906113057 14 160 0.0 0.0 0.00 0.00 0.00 96 1013.5
20260906111555 15 72 0.0 0.0 0.00 0.00 0.00 96 1013.3
20260906110053 14 72 0.0 0.0 0.00 0.00 0.00 95 1013.1
20260906104557 15 72 0.0 0.0 0.00 0.00 0.00 95 1012.9
20260906103050 15 72 0.0 0.0 0.00 0.00 0.00 95 1012.8
20260906101549 15 72 0.0 0.0 0.00 0.00 0.00 95 1012.8
20260906100047 15 72 0.0 0.0 0.00 0.00 0.00 95 1012.8
20260906094601 15 72 0.0 0.0 0.00 0.00 0.00 95 1012.7
20260906093105 15 72 0.0 0.0 0.00 0.00 0.00 95 1012.5
20260906091543 15 72 0.0 0.0 0.00 0.00 0.00 96 1012.1
20260906090040 15 72 0.0 0.0 0.00 0.00 0.00 96 1011.9
20260906084539 15 72 0.0 0.0 0.00 0.00 0.00 95 1011.9
20260906083046 15 72 0.0 0.0 0.00 0.00 0.00 95 1011.7
20260906081540 15 72 0.0 0.0 0.00 0.00 0.00 95 1011.7
20260906080041 15 72 0.0 0.0 0.00 0.00 0.00 95 1011.6
20260906074537 15 72 0.0 0.0 0.00 0.00 0.00 95 1011.4
20260906073036 15 72 0.0 0.0 0.00 0.00 0.00 94 1011.4
20260906071537 15 72 0.0 0.0 0.00 0.00 0.00 94 1011.5
20260906070035 15 72 0.0 0.0 0.00 0.00 0.00 94 1011.5
20260906064534 15 72 0.0 0.0 0.00 0.00 0.00 94 1011.5
20260906063035 15 72 0.0 0.0 0.00 0.00 0.00 93 1011.5
20260906061532 15 72 0.0 0.0 0.00 0.00 0.00 93 1011.5
20260906060031 15 72 0.0 0.0 0.00 0.00 0.00 93 1011.5
20260906054532 15 72 0.0 0.0 0.00 0.00 0.00 92 1011.5
20260906053029 15 72 0.0 0.0 0.00 0.00 0.00 92 1011.8
20260906051536 15 72 0.0 0.0 0.00 0.00 0.00 92 1011.8
20260906050028 15 72 0.0 0.0 0.00 0.00 0.00 91 1011.9
20260906044525 15 72 0.0 0.0 0.00 0.00 0.00 91 1011.8
20260906043025 15 72 0.0 0.0 0.00 0.00 0.00 91 1011.8
20260906041524 15 72 0.0 0.0 0.00 0.00 0.00 91 1011.7
20260906040029 16 72 0.0 0.0 0.00 0.00 0.00 90 1011.7
20260906034522 16 72 0.0 0.0 0.00 0.00 0.00 90 1011.6
20260906033035 16 72 0.0 0.0 0.00 0.00 0.00 90 1011.4
20260906031525 16 72 0.0 0.0 0.00 0.00 0.00 90 1011.3
20260906030021 16 72 0.0 0.0 0.00 0.00 0.00 89 1011.3
20260906024538 16 72 0.0 0.0 0.00 0.00 0.00 89 1011.4
20260906023024 16 72 0.0 0.0 0.00 0.00 0.00 88 1011.5
20260906021520 16 72 0.0 0.0 0.00 0.00 0.00 88 1011.4
20260906020019 16 72 0.0 0.0 0.00 0.00 0.00 88 1011.4
20260906014530 16 72 0.0 0.0 0.00 0.00 0.00 87 1011.5
20260906013036 16 72 0.0 0.0 0.00 0.00 0.00 87 1011.7
20260906011517 17 72 0.0 0.0 0.00 0.00 0.00 86 1011.5
20260906010017 17 72 0.0 0.0 0.00 0.00 0.00 86 1011.4
20260906004515 17 72 0.0 0.0 0.00 0.00 0.00 86 1011.4
20260906003013 17 72 0.0 0.0 0.00 0.00 0.00 86 1011.1
20260906001513 17 72 0.0 0.0 0.00 0.00 0.00 85 1011.0
20260906000011 17 72 0.0 0.0 0.00 0.00 0.00 84 1010.8
20260905234510 17 72 0.0 0.0 0.00 0.00 0.00 84 1010.8
20260905233010 17 72 0.0 0.0 0.00 0.00 0.00 83 1010.7
20260905231508 18 72 0.0 0.0 0.00 0.00 0.00 82 1010.6
20260905230008 18 72 0.0 0.0 0.00 0.00 0.00 82 1010.5
20260905224507 18 72 0.0 0.0 0.00 0.00 0.00 82 1010.5
20260905223006 18 72 0.0 0.0 0.00 0.00 0.00 80 1010.6
20260905221505 19 72 0.0 0.0 0.00 0.00 0.00 80 1010.5
20260905220003 19 72 0.0 0.0 0.00 0.00 0.00 79 1010.3
20260905214603 20 71 0.0 0.0 0.00 0.00 0.00 77 1010.0
20260905213105 20 36 0.0 0.0 0.00 0.00 0.00 77 1009.9
20260905211602 20 360 0.0 0.0 0.00 0.00 0.00 77 1009.7
20260905210059 20 355 0.0 0.0 0.00 0.00 0.00 75 1009.7
20260905204557 21 360 0.0 0.0 0.00 0.00 0.00 75 1009.6
20260905203056 21 355 0.0 0.0 0.00 0.00 0.00 74 1009.3
20260905201612 21 360 0.0 0.0 0.00 0.00 0.00 75 1009.2
20260905200056 21 5 0.0 0.0 0.00 0.00 0.00 75 1009.1
20260905194552 21 82 0.0 0.0 0.00 0.00 0.00 73 1009.1
20260905193104 21 117 0.0 0.0 0.00 0.00 0.00 74 1009.1
20260905191550 21 319 0.0 0.0 0.00 0.00 0.00 76 1009.1
20260905190050 21 283 0.0 0.0 0.00 0.00 0.00 76 1009.1
20260905184553 21 42 0.0 0.0 0.00 0.00 0.00 76 1009.0
20260905183047 21 355 0.0 0.0 0.00 0.00 0.00 77 1009.2
20260905181603 21 355 0.0 0.0 0.00 0.00 0.00 79 1009.2
20260905180044 20 355 0.0 0.0 0.00 0.00 0.00 78 1009.2
20260905174543 20 152 0.0 0.0 0.00 0.00 0.00 79 1008.9
20260905173042 20 34 0.0 0.0 0.00 0.00 0.00 81 1008.9
20260905171542 20 61 0.0 0.0 0.00 0.00 0.00 79 1008.9
20260905170041 20 34 0.0 0.0 0.00 0.00 0.00 79 1008.9
20260905164539 21 321 0.0 0.0 0.00 0.00 0.00 78 1008.8
20260905163039 20 288 0.0 0.0 0.00 0.00 0.00 78 1008.6
20260905161551 20 54 0.0 0.0 0.00 0.00 0.00 80 1008.6
20260905160041 20 18 0.0 0.0 0.00 0.00 0.00 79 1008.6
20260905154540 20 325 0.0 0.0 0.00 0.00 0.00 79 1008.5
20260905153035 21 171 0.0 0.0 0.00 0.00 0.00 79 1008.4
20260905151534 20 86 0.0 0.0 0.00 0.00 0.00 79 1008.3
20260905150034 20 63 0.0 0.0 0.00 0.00 0.00 79 1008.3
20260905144529 20 59 0.0 0.0 0.00 0.00 0.00 82 1008.3
20260905143029 19 68 0.0 0.0 0.00 0.00 0.00 84 1008.2
20260905141530 19 103 0.0 0.0 0.00 0.00 0.00 86 1008.3
20260905140021 18 115 0.0 0.0 0.00 0.00 0.00 88 1008.2
20260905134520 18 105 0.0 0.0 0.00 0.00 0.00 89 1008.5
20260905133015 17 169 0.0 0.0 0.00 0.00 0.00 93 1008.5